#timestamp,LO_Frequency,Hit,StdDev 
1556272815.3,286046999.4,N
1556272835.2,286047001.2,N
1556272855.0,286046998.5,N
1556272855.9,286046998.5,N
1556272875.8,286046998.1,N
1556272895.6,286046998.2,N
1556272915.4,286046998.7,N
1556272935.3,286046999.1,N
1556272955.1,286046998.2,N
1556272975.8,286047001.2,N
1556272995.7,286046998.6,N
1556273015.5,286046998.4,N
1556273035.4,286047001.0,N
1556273055.2,286047000.6,N
1556273075.0,286047000.5,N
1556273075.9,286047000.5,N
1556273095.8,286047000.5,N
1556273115.6,286047000.5,N
1556273135.4,286046998.7,N
1556273155.3,286046998.4,N
1556273175.1,286046998.2,N
1556273195.9,286046999.8,N
1556273215.7,286047002.4,N
1556273235.5,286047002.0,N
1556273255.4,286047001.7,N
1556273275.2,286047003.2,N
1556273295.0,286047003.4,N
1556273295.9,286047003.4,N
1556273315.8,286047003.8,N
1556273335.6,286047002.2,N
1556273355.5,286047004.0,N
1556273375.3,286047002.6,N
1556273395.1,286047001.8,N
1556273415.9,286046999.7,N
1556273435.7,286047000.0,N
1556273455.5,286047000.8,N
1556273475.4,286047002.8,N
1556273495.2,286047000.7,N
1556273515.1,286046998.1,N
1556273516.0,286046998.1,N
1556273535.8,286047000.7,N
1556273555.6,286046998.1,N
1556273575.5,286047001.9,N
1556273595.3,286047003.6,N
1556273615.1,286047004.2,N
1556273635.9,286047002.0,N
1556273655.7,286047006.0,Y
1556273675.6,286047002.3,P
1556273695.4,286047002.4,P
1556273715.2,286047002.2,P
1556273735.1,286047000.2,N
1556273736.0,286047000.2,N
1556273755.8,286047002.7,N
1556273775.7,286047001.7,N
1556273795.5,286047004.1,Y
1556273815.3,286047002.0,P
1556273835.2,286046999.8,N
1556273855.0,286047000.6,N
1556273855.9,286047000.6,N
1556273875.7,286046999.8,N
1556273895.6,286046999.7,N
1556273915.4,286047000.0,N
1556273935.3,286047002.6,Y
1556273955.1,286047002.6,P
1556273956.0,286047002.6,N
1556273975.8,286047002.2,N
1556273995.7,286047002.1,N
1556274015.5,286047004.3,Y
1556274035.4,286047001.9,P
1556274055.2,286047001.4,P
1556274075.0,286047001.3,P
1556274075.9,286047001.3,Y
1556274095.8,286046999.9,P
1556274115.6,286047000.1,N
1556274135.5,286047000.9,N
1556274155.3,286046999.9,N
1556274175.1,286047000.7,N
1556274195.9,286047000.0,N
1556274215.7,286047000.9,N
1556274235.5,286046998.5,N
1556274255.4,286046998.2,N
1556274275.2,286047000.7,N
1556274295.1,286047000.6,N
1556274296.0,286047000.6,N
1556274315.8,286046998.6,N
1556274335.6,286047001.0,N
1556274355.5,286047000.3,N
1556274375.3,286047001.0,N
1556274395.1,286047000.2,N
1556274415.6,286047000.9,N
1556274435.4,286047000.0,N
1556274455.2,286046999.9,N
1556274475.1,286046999.8,N
1556274476.0,286046999.8,N
1556274495.8,286047001.0,N
1556274515.7,286047000.5,N
1556274535.5,286047000.0,N
1556274555.3,286047000.7,N
1556274575.2,286047000.6,N
1556274595.9,286047001.2,N
1556274615.7,286047000.8,N
1556274635.6,286046999.3,N
1556274655.4,286046998.7,N
1556274675.2,286047001.1,N
1556274695.1,286046998.2,N
1556274696.0,286046998.2,N
1556274715.8,286046999.8,N
1556274735.7,286047000.4,N
1556274755.5,286046999.8,N
1556274775.3,286046998.7,N
1556274795.2,286046997.7,N
1556274815.0,286046997.7,N
1556274815.9,286046997.7,N
1556274835.7,286046995.0,Y
1556274855.6,286046996.0,P
1556274875.4,286046997.5,N
1556274895.3,286046997.2,N
1556274915.1,286046997.2,N
1556274916.0,286046997.2,N
1556274935.8,286046997.3,N
1556274955.7,286046997.4,N
1556274975.5,286046997.7,N
1556274995.3,286046996.7,Y
1556275015.2,286046999.8,P
1556275035.0,286047001.0,N
1556275035.9,286047001.0,N
1556275055.8,286046998.7,N
1556275075.6,286046998.5,N
1556275095.4,286046998.5,N
1556275115.3,286047002.3,N
1556275135.1,286047000.1,N
1556275155.9,286047000.9,N
1556275175.7,286046999.4,N
1556275195.5,286046999.5,N
1556275215.4,286046998.6,N
1556275235.2,286046998.5,N
1556275255.0,286047000.4,N
1556275255.9,286047000.4,N
1556275275.8,286047000.5,N
1556275295.6,286047002.3,N
1556275315.5,286046999.8,N
1556275335.3,286047000.7,N
1556275355.1,286046998.6,N
1556275375.9,286047000.4,N
1556275395.7,286047000.8,N
1556275415.5,286047000.6,N
1556275435.4,286047000.6,N
1556275455.2,286047000.4,N
1556275475.0,286047000.0,N
1556275475.9,286047000.0,N
1556275495.8,286046998.3,N
1556275515.6,286047000.3,N
1556275535.6,286047002.5,N
1556275555.4,286047002.4,N
1556275575.3,286047001.5,N
1556275595.1,286047001.7,N
1556275596.0,286047001.7,N
1556275615.8,286047001.6,N
1556275665.7,286047001.9,E
1556275675.6,286046999.7,N
1556275695.5,286047001.0,P
1556275715.3,286046998.4,N
1556275735.1,286046998.9,N
1556275755.9,286046996.5,Y
1556275775.7,286047001.0,P
1556275795.6,286046998.2,N
1556275815.4,286047000.9,N
1556275835.2,286046998.2,N
1556275855.1,286047002.3,N
1556275856.0,286047002.3,N
1556275875.8,286047004.3,N
1556275895.6,286047001.5,N
1556275915.5,286047002.0,N
1556275935.3,286047002.8,N
1556275955.2,286047000.4,N
1556275975.9,286047000.8,N
1556275995.7,286046998.7,N
1556276015.6,286047000.8,N
1556276035.4,286046998.4,N
1556276055.2,286046998.9,N
1556276075.1,286047001.2,N
1556276076.0,286047001.2,N
1556276095.8,286046998.7,N
1556276115.6,286047000.5,N
1556276135.5,286047002.2,N
1556276155.3,286047000.2,N
1556276175.2,286047001.1,N
1556276195.9,286047002.7,N
1556276215.7,286047001.7,N
1556276235.3,286047001.8,N
1556276255.2,286047002.5,N
1556276275.9,286047000.1,N
1556276295.7,286047000.0,N
1556276315.6,286047000.6,N
1556276335.4,286047002.1,N
1556276355.3,286047002.5,N
1556276375.1,286047002.1,N
1556276376.0,286047002.1,N
1556276395.8,286047001.7,N
